Location: ????????
(60.4333°N, 46.4710°E)
Time: 03:18:46
(UTC+00:00)

NOAA 11 - Pass Details

Date: 25 November 2020
Orbit: 834 x 849 km, 98.4° (Epoch: 19 January)

Event Time Altitude Azimuth Distance (km) Brightness Sun altitude
Rises 14:08:27 0° 159° (SSE) 3,376 7.3 -14.2°
Reaches altitude 10° 14:10:47 10° 159° (SSE) 2,447 6.6 -14.4°
Maximum altitude 14:16:14 89° 70° (ENE) 847 4.2 -15.1°
Drops below altitude 10° 14:21:44 10° 342° (NNW) 2,470 6.7 -15.7°
Sets 14:24:06 0° 343° (NNW) 3,410 7.4 -16.0°
